FW2344 Weather Reports


time (UTC)temp
F
wind
direction
speed
knots
gust
knots
rain 1hr
in
rain 24hr
in
rain mn
in
humidity
%
barometer
mb
20260506123053 64 21 0.0 2.6 0.00 0.00 0.00 81 1009.6
20260506121553 64 139 0.0 2.6 0.00 0.00 0.00 81 1009.7
20260506120048 64 143 0.0 4.3 0.00 0.00 0.00 82 1010.0
20260506114548 64 170 0.0 4.3 0.00 0.00 0.00 82 1009.8
20260506113044 63 178 0.9 7.0 0.00 0.00 0.00 82 1009.7
20260506111542 63 179 0.0 2.6 0.00 0.00 0.00 83 1009.6
20260506110040 62 155 1.7 6.1 0.00 0.00 0.00 83 1009.7
20260506104540 62 159 0.0 3.5 0.00 0.00 0.00 83 1009.7
20260506103046 62 358 0.0 4.3 0.00 0.00 0.00 83 1009.3
20260506101532 62 144 0.0 4.3 0.00 0.00 0.00 82 1009.4
20260506100030 62 177 0.0 4.3 0.00 0.00 0.00 82 1009.2
20260506094527 62 158 0.9 7.0 0.00 0.00 0.00 81 1009.6
20260506093023 62 332 0.0 4.3 0.00 0.00 0.00 80 1009.5
20260506091521 63 83 0.9 4.3 0.00 0.00 0.00 80 1009.2
20260506090022 63 144 0.0 4.3 0.00 0.00 0.00 79 1009.3
20260506084512 64 181 0.0 6.1 0.00 0.00 0.00 77 1009.4
20260506083011 64 102 0.0 3.5 0.00 0.00 0.00 76 1009.5
20260506081506 64 169 0.0 1.7 0.00 0.00 0.00 75 1009.5
20260506073059 65 163 0.0 2.6 0.00 0.00 0.00 71 1009.3
20260506071552 66 153 0.0 3.5 0.00 0.00 0.00 70 1009.6
20260506061553 66 167 0.0 1.7 0.00 0.00 0.00 69 1009.9
20260506050128 68 155 0.0 0.9 0.00 0.00 0.00 66 1010.3
20260506044523 68 286 0.0 3.5 0.00 0.00 0.00 65 1010.3
20260506043033 68 160 0.0 1.7 0.00 0.00 0.00 65 1010.4
20260506041514 68 154 0.0 2.6 0.00 0.00 0.00 64 1010.2
20260506040009 68 174 0.0 2.6 0.00 0.00 0.00 64 1010.2
20260506034507 68 162 0.0 2.6 0.00 0.00 0.00 64 1010.3
20260506033005 68 153 0.0 2.6 0.00 0.00 0.00 63 1010.2
20260506031503 69 103 0.0 6.1 0.00 0.00 0.00 62 1010.2
20260506030000 70 162 0.0 6.1 0.00 0.00 0.00 58 1010.2
20260506024601 72 167 0.0 7.0 0.00 0.00 0.00 54 1009.9
20260506023057 73 49 0.0 4.3 0.00 0.00 0.00 51 1009.8
20260506021604 74 274 0.0 4.3 0.00 0.00 0.00 48 1009.8
20260506020053 75 160 0.0 6.1 0.00 0.00 0.00 47 1009.6
20260506014551 75 157 0.0 5.2 0.00 0.00 0.00 44 1009.5
20260506013056 74 264 0.0 1.7 0.00 0.00 0.00 44 1009.3
20260506011559 75 147 0.0 0.9 0.00 0.00 0.00 43 1009.2
20260506010044 75 124 0.0 0.9 0.00 0.00 0.00 43 1009.0
20260506004541 76 171 0.0 1.7 0.00 0.00 0.00 42 1008.9
20260506003040 76 185 0.0 6.1 0.00 0.00 0.00 41 1008.8
20260506001542 76 67 0.0 6.1 0.00 0.00 0.00 40 1008.7
20260506000039 77 164 0.0 3.5 0.00 0.00 0.00 39 1008.6
20260505234533 77 316 0.0 3.5 0.00 0.00 0.00 39 1008.4
20260505233031 78 337 0.0 6.1 0.00 0.00 0.00 38 1008.2
20260505231534 78 320 0.0 6.1 0.00 0.00 0.00 38 1008.0
20260505230034 79 328 0.0 2.6 0.00 0.00 0.00 39 1007.9
20260505224526 79 168 0.9 7.0 0.00 0.00 0.00 39 1007.6
20260505223028 80 167 0.0 2.6 0.00 0.00 0.00 39 1007.6
20260505221524 81 329 0.0 12.2 0.00 0.00 0.00 38 1007.3
20260505220019 81 8 1.7 10.4 0.00 0.00 0.00 37 1007.1
20260505214524 81 142 0.9 7.0 0.00 0.00 0.00 37 1007.2
20260505213019 81 149 0.9 8.7 0.00 0.00 0.00 37 1007.0
20260505211514 82 172 0.0 7.8 0.00 0.00 0.00 36 1007.0
20260505210012 83 11 0.9 7.8 0.00 0.00 0.00 37 1006.7
20260505204509 83 147 2.6 9.6 0.00 0.00 0.00 36 1006.6
20260505203005 84 135 0.0 6.1 0.00 0.00 0.00 37 1006.8
20260505201505 85 182 0.9 6.1 0.00 0.00 0.00 37 1006.9
20260505200106 84 1 0.9 8.7 0.00 0.00 0.00 36 1007.0
20260505194557 85 191 3.5 9.6 0.00 0.00 0.00 35 1007.2
20260505193053 84 18 2.6 11.3 0.00 0.00 0.00 38 1007.3
20260505191549 84 156 1.7 5.2 0.00 0.00 0.00 39 1007.5
20260505190047 84 135 1.7 7.8 0.00 0.00 0.00 38 1007.6
20260505184541 84 100 0.9 10.4 0.00 0.00 0.00 40 1007.7
20260505183051 84 53 0.0 7.0 0.00 0.00 0.00 40 1008.0
20260505181535 84 154 0.0 10.4 0.00 0.00 0.00 43 1008.0
20260505180035 83 176 0.9 8.7 0.00 0.00 0.00 44 1008.3
20260505174528 85 144 0.0 4.3 0.00 0.00 0.00 42 1008.4
20260505173024 84 157 0.0 6.1 0.00 0.00 0.00 45 1008.5
20260505171518 83 110 0.0 7.8 0.00 0.00 0.00 43 1008.5
20260505170014 82 120 0.0 9.6 0.00 0.00 0.00 49 1008.9
20260505164509 83 188 1.7 5.2 0.00 0.00 0.00 46 1009.1
20260505163009 83 143 0.9 6.1 0.00 0.00 0.00 44 1009.4
20260505161607 82 171 0.9 5.2 0.00 0.00 0.00 49 1009.6
20260505153045 79 130 0.0 7.8 0.00 0.00 0.00 51 1010.1
20260505151541 79 144 0.0 3.5 0.00 0.00 0.00 52 1010.1
20260505124606 64 135 0.0 1.7 0.00 0.00 0.00 79 1010.3